Location: Narrabri
(30.3170°S, 149.7830°E)
Time: 09:07:29
(UTC+10:00)

Hubble Space Telescope - Visible Passes

Search period start: 16 July 2018 00:00
Search period end: 26 July 2018 00:00
Orbit: 537 x 541 km, 28.5° (Epoch: 15 July)

Date Brightness Start Highest point End Pass type
(mag) Time Alt. Az. Time Alt. Az. Time Alt. Az.
16 Jul 1.8 19:13:19 10° W 19:17:14 40° NNW 19:17:14 40° NNW visible
17 Jul 2.1 19:03:03 10° W 19:06:52 34° NNW 19:07:49 30° N visible
18 Jul 2.5 18:52:50 10° W 18:56:27 28° NNW 18:58:30 19° NNE visible
19 Jul 2.9 18:42:41 10° WNW 18:46:02 23° NNW 18:49:18 10° NNE visible
20 Jul 3.2 18:32:38 10° WNW 18:35:36 19° NNW 18:38:33 10° NNE visible
21 Jul 3.5 18:22:45 10° WNW 18:25:09 15° NNW 18:27:33 10° N visible
22 Jul 3.7 18:13:16 10° NW 18:14:43 11° NNW 18:16:08 10° N visible
